CZ-6A DEB, 60639

Orbit data source: Space-Track

CZ-6A DEB, 60639 is space debris in LEO originally from a launch on Tue, 06 Aug 2024 UTC launched from the Taiyaun Space Center, China (TSC). Debris objects in space refer to the collection of defunct objects orbiting the Earth. Examples of debris include non-operational satellites, rocket bodies, and fragments generated from explosions, collisions, or faulty payload assembly.

Loading next visibility...
Identifier
60639, 2024-140AQ
Orbit
LEO
Country
Flag of CNCN / PRC
Related business
Manufacturer
SAST
Mission
Spacecraft
Bus & Motor
Unknown
Mass
Unknown
Launch date (UTC)
2024-08-06 (2 years ago)
Launch vehicle
Unknown
Launch site
Taiyaun Space Center, China (TSC)
Object type
Payload
Rocket body
Debris
Shape & HBR
Unknown shape, 0.3 m
Radar Cross Section
Medium (>0.1 m² and <1 m²)

Expand to show TLE details & history
Last TLE update: 10 hours ago

TLE from 10 hours ago
0 CZ-6A DEB
1 60639U 24140AQ  26171.45182081 -.00000032  00000-0 -53376-4 0  9996
2 60639  88.4760 247.7070 0458179  85.7127 279.6215 13.36051511 90939
Epoch: 2026-06-20T10:50Z
TLE epoch observation values (Epoch: 2026-06-20T10:50:37.317Z)
Latitude
-0.00003°
Longitude
176.38526°
Altitude
1,084.966 km
Speed
7.33 km/s
True Right ascension
16h 30m 49s
True Declination
0° 00' 00"
Sunlit
Object was in full shadow at epoch
Visualization orbit readout
Latitude
Unknown
Longitude
Unknown
Altitude
Unknown
Speed
Unknown
Apparent Right ascension
Unknown
Apparent Declination
Unknown
Sunlit
N/A
Visualization observer readout
Local Sidereal Time
07:22:55
Azimuth
Unknown
Elevation
Unknown
Doppler factor
Unknown
Orbital elements
Apogee altitude
1,464.69 km
Perigee altitude
777.492 km
Semi-major axis
7,499.228 km
Eccentricity
0.04582
Inclination
88.476°
RAAN
247.707°
Arg. of periapsis
85.7127°
True anomaly
274.40223°
Mean anomaly
279.6215°
Eccentric anomaly
277.01598°
Mean motion
3.34209 °/min
Orbital period
107.72 mins
BSTAR
-0.000053376
Loading maneuver chart data...
Computing Atmospheric mass density...
Loading historical data...
Loading historical data...
Loading historical data...
Loading historical data...
Loading historical data...
Loading historical data...
Loading historical data...

Documentation

Showing up to 5 results
|